Stündliche Wetter Holowienki

Heute, 21 Juni, Montag

Zeit Temperatur Niederschläge Wind Luftdruck Luftfeuchtigkeit
00:00 +19°C° 0 mm 3 m/S 748 mmHg 93%
01:00 +19°C° 0 mm 3 m/S 748 mmHg 93%
02:00 +19°C° 0 mm 3 m/S 747 mmHg 94%
03:00 +19°C° 0 mm 3 m/S 747 mmHg 94%
04:00 +19°C° 0 mm 3 m/S 747 mmHg 94%
05:00 +20°C° 0 mm 3 m/S 747 mmHg 89%
06:00 +22°C° 0 mm 4 m/S 747 mmHg 83%
07:00 +23°C° 0 mm 4 m/S 748 mmHg 77%
08:00 +25°C° 0 mm 5 m/S 748 mmHg 73%
09:00 +26°C° 0 mm 5 m/S 747 mmHg 70%
10:00 +27°C° 0 mm 6 m/S 747 mmHg 66%
11:00 +28°C° 0 mm 6 m/S 747 mmHg 61%
12:00 +29°C° 0 mm 5 m/S 747 mmHg 56%
13:00 +30°C° 0 mm 5 m/S 746 mmHg 50%
14:00 +30°C° 0 mm 5 m/S 746 mmHg 53%
15:00 +30°C° 0 mm 4 m/S 746 mmHg 55%
16:00 +30°C° 0 mm 4 m/S 746 mmHg 57%
17:00 +28°C° 0 mm 3 m/S 745 mmHg 63%
18:00 +27°C° 0 mm 3 m/S 745 mmHg 70%
19:00 +25°C° 0 mm 3 m/S 745 mmHg 76%
20:00 +24°C° 0 mm 3 m/S 745 mmHg 80%
21:00 +22°C° 0 mm 3 m/S 745 mmHg 84%
22:00 +21°C° 0 mm 3 m/S 746 mmHg 87%
23:00 +21°C° 0 mm 3 m/S 745 mmHg 89%

Morgen, 22 Juni, Dienstag

Zeit Temperatur Niederschläge Wind Luftdruck Luftfeuchtigkeit
00:00 +20°C° 0 mm 3 m/S 745 mmHg 91%
01:00 +20°C° 0 mm 3 m/S 745 mmHg 92%
02:00 +20°C° 0 mm 3 m/S 745 mmHg 93%
03:00 +19°C° 0 mm 3 m/S 745 mmHg 93%
04:00 +19°C° 0 mm 3 m/S 746 mmHg 94%
05:00 +21°C° 0 mm 3 m/S 746 mmHg 87%
06:00 +23°C° 0 mm 4 m/S 746 mmHg 81%
07:00 +25°C° 0 mm 4 m/S 746 mmHg 75%
08:00 +26°C° 0 mm 4 m/S 746 mmHg 71%
09:00 +28°C° 0 mm 4 m/S 746 mmHg 66%
10:00 +29°C° 0 mm 4 m/S 746 mmHg 62%
11:00 +30°C° 0.2 mm 4 m/S 746 mmHg 60%
12:00 +30°C° 0.2 mm 4 m/S 747 mmHg 59%
13:00 +32°C° 0.2 mm 4 m/S 747 mmHg 57%
14:00 +30°C° 0.2 mm 3 m/S 747 mmHg 58%
15:00 +30°C° 0.2 mm 3 m/S 746 mmHg 59%
16:00 +30°C° 0.2 mm 3 m/S 746 mmHg 60%
17:00 +29°C° 0.2 mm 3 m/S 746 mmHg 66%
18:00 +28°C° 0.2 mm 3 m/S 747 mmHg 71%
19:00 +26°C° 0.2 mm 3 m/S 747 mmHg 77%
20:00 +25°C° 0.7 mm 2 m/S 747 mmHg 82%
21:00 +23°C° 0.7 mm 2 m/S 747 mmHg 86%
22:00 +21°C° 0.7 mm 2 m/S 748 mmHg 91%
23:00 +21°C° 0.2 mm 1 m/S 748 mmHg 91%

übermorgen, 23 Juni, Mittwoch

Zeit Temperatur Niederschläge Wind Luftdruck Luftfeuchtigkeit
00:00 +21°C° 0.2 mm 1 m/S 748 mmHg 91%
01:00 +21°C° 0.2 mm 1 m/S 748 mmHg 91%
02:00 +21°C° 0.2 mm 1 m/S 748 mmHg 92%
03:00 +21°C° 0.2 mm 1 m/S 748 mmHg 92%
04:00 +21°C° 0.2 mm 1 m/S 748 mmHg 93%
05:00 +21°C° 0.4 mm 1 m/S 749 mmHg 92%
06:00 +22°C° 0.4 mm 1 m/S 749 mmHg 90%
07:00 +23°C° 0.4 mm 1 m/S 749 mmHg 89%
08:00 +24°C° 0.1 mm 1 m/S 750 mmHg 84%
09:00 +25°C° 0.1 mm 1 m/S 750 mmHg 80%
10:00 +26°C° 0.1 mm 1 m/S 750 mmHg 75%
11:00 +27°C° 0 mm 1 m/S 750 mmHg 71%
12:00 +28°C° 0 mm 1 m/S 750 mmHg 67%
13:00 +29°C° 0 mm 1 m/S 750 mmHg 63%
14:00 +29°C° 0.1 mm 1 m/S 750 mmHg 63%
15:00 +29°C° 0.1 mm 2 m/S 750 mmHg 63%
16:00 +29°C° 0.1 mm 2 m/S 750 mmHg 63%
17:00 +28°C° 0.6 mm 2 m/S 750 mmHg 71%
18:00 +26°C° 0.6 mm 2 m/S 750 mmHg 78%
19:00 +25°C° 0.6 mm 3 m/S 751 mmHg 86%
20:00 +24°C° 1 mm 2 m/S 751 mmHg 88%
21:00 +23°C° 1 mm 2 m/S 751 mmHg 89%
22:00 +22°C° 1 mm 1 m/S 751 mmHg 91%
23:00 +21°C° 0.3 mm 1 m/S 751 mmHg 92%

24 Juni, Donnerstag

Zeit Temperatur Niederschläge Wind Luftdruck Luftfeuchtigkeit
00:00 +21°C° 0.3 mm 1 m/S 751 mmHg 93%
01:00 +19°C° 0.3 mm 2 m/S 751 mmHg 95%
02:00 +19°C° 0.1 mm 2 m/S 751 mmHg 96%
03:00 +19°C° 0.1 mm 2 m/S 751 mmHg 97%
04:00 +19°C° 0.1 mm 2 m/S 750 mmHg 98%
05:00 +20°C° 0 mm 2 m/S 751 mmHg 95%
06:00 +21°C° 0 mm 2 m/S 751 mmHg 92%
07:00 +23°C° 0 mm 2 m/S 751 mmHg 89%
08:00 +24°C° 0 mm 2 m/S 751 mmHg 83%
09:00 +26°C° 0 mm 2 m/S 751 mmHg 77%
10:00 +27°C° 0 mm 1 m/S 751 mmHg 70%
11:00 +28°C° 0.1 mm 1 m/S 751 mmHg 67%
12:00 +29°C° 0.1 mm 1 m/S 750 mmHg 64%
13:00 +30°C° 0.1 mm 1 m/S 750 mmHg 61%
14:00 +30°C° 0.1 mm 1 m/S 750 mmHg 61%
15:00 +30°C° 0.1 mm 1 m/S 750 mmHg 61%
16:00 +30°C° 0.1 mm 1 m/S 750 mmHg 61%
17:00 +29°C° 0.6 mm 1 m/S 749 mmHg 67%
18:00 +27°C° 0.6 mm 2 m/S 749 mmHg 74%
19:00 +26°C° 0.6 mm 2 m/S 749 mmHg 81%
20:00 +25°C° 0 mm 2 m/S 749 mmHg 84%
21:00 +24°C° 0 mm 2 m/S 749 mmHg 88%
22:00 +22°C° 0 mm 3 m/S 749 mmHg 91%
23:00 +21°C° 0 mm 3 m/S 749 mmHg 92%

25 Juni, Freitag

Zeit Temperatur Niederschläge Wind Luftdruck Luftfeuchtigkeit
00:00 +21°C° 0 mm 3 m/S 748 mmHg 93%
01:00 +20°C° 0 mm 3 m/S 748 mmHg 94%
02:00 +20°C° 0.2 mm 4 m/S 748 mmHg 94%
03:00 +20°C° 0.2 mm 4 m/S 747 mmHg 94%
04:00 +20°C° 0.2 mm 4 m/S 747 mmHg 94%
05:00 +21°C° 1.7 mm 4 m/S 747 mmHg 93%
06:00 +21°C° 1.7 mm 4 m/S 747 mmHg 93%
07:00 +22°C° 1.7 mm 4 m/S 747 mmHg 92%
08:00 +25°C° 0.3 mm 4 m/S 747 mmHg 84%
09:00 +27°C° 0.3 mm 5 m/S 746 mmHg 76%
10:00 +29°C° 0.3 mm 5 m/S 746 mmHg 68%
11:00 +29°C° 0.2 mm 5 m/S 746 mmHg 69%
12:00 +29°C° 0.2 mm 5 m/S 746 mmHg 71%
13:00 +29°C° 0.2 mm 5 m/S 747 mmHg 72%
14:00 +28°C° 0.2 mm 5 m/S 747 mmHg 72%
15:00 +27°C° 0.2 mm 6 m/S 747 mmHg 73%
16:00 +27°C° 0.2 mm 6 m/S 747 mmHg 73%
17:00 +24°C° 0 mm 6 m/S 747 mmHg 76%
18:00 +23°C° 0 mm 6 m/S 748 mmHg 79%
19:00 +21°C° 0 mm 5 m/S 748 mmHg 82%
20:00 +20°C° 0 mm 5 m/S 748 mmHg 86%
21:00 +18°C° 0 mm 4 m/S 748 mmHg 89%
22:00 +15°C° 0 mm 4 m/S 749 mmHg 93%
23:00 +15°C° 0 mm 4 m/S 749 mmHg 93%

26 Juni, Samstag

Zeit Temperatur Niederschläge Wind Luftdruck Luftfeuchtigkeit
00:00 +16°C° 0 mm 3 m/S 749 mmHg 93%
01:00 +14°C° 0 mm 3 m/S 750 mmHg 93%
02:00 +14°C° 0 mm 3 m/S 750 mmHg 94%
03:00 +14°C° 0 mm 3 m/S 750 mmHg 95%
04:00 +13°C° 0 mm 3 m/S 750 mmHg 95%
05:00 +16°C° 0 mm 3 m/S 750 mmHg 88%
06:00 +17°C° 0 mm 3 m/S 750 mmHg 81%
07:00 +19°C° 0 mm 4 m/S 750 mmHg 74%
08:00 +20°C° 0 mm 4 m/S 750 mmHg 70%
09:00 +22°C° 0 mm 4 m/S 750 mmHg 66%
10:00 +23°C° 0 mm 5 m/S 751 mmHg 62%
11:00 +23°C° 0 mm 5 m/S 750 mmHg 59%
12:00 +25°C° 0 mm 5 m/S 750 mmHg 57%
13:00 +26°C° 0 mm 5 m/S 750 mmHg 55%
14:00 +25°C° 0 mm 4 m/S 750 mmHg 59%
15:00 +24°C° 0 mm 3 m/S 750 mmHg 64%
16:00 +24°C° 0 mm 3 m/S 750 mmHg 68%
17:00 +23°C° 0 mm 2 m/S 750 mmHg 72%
18:00 +21°C° 0 mm 2 m/S 750 mmHg 75%
19:00 +21°C° 0 mm 2 m/S 750 mmHg 79%
20:00 +20°C° 0 mm 2 m/S 750 mmHg 82%
21:00 +19°C° 0 mm 1 m/S 750 mmHg 85%
22:00 +18°C° 0 mm 1 m/S 750 mmHg 88%
23:00 +18°C° 0 mm 1 m/S 750 mmHg 89%
Mehr zeigen

Wir brauchen deine Erlaubnis

Meteoprog und unser Service Anbieter werden persönliche Daten aufbewahren, so wie Cookies, Geräte Bezeichnung oder ähnliche Technologien von deinem Gerät und Prozess, so wie Persönliche Daten Inhalte und Werbungen, genauso wie social Media und den Verkehr zu analysieren.

  • Aufbewahrung und/oder Zugang zu deiner Geräte Informationen.

    Cookies, Geräte Bezeichnung oder andere Informationen, können aufbewahrt oder Zugang zu deinem Gerät erhalten, für den Grund, der oben angegeben wird.

  • Personalisierte Werbung und Inhalte, Messungen, Einblick in das Publikum und Produkt Entwicklung.

    Werbungen und Inhalte können personalisiert werden, basierend auf ein Profil. Mehr Daten können besser personalisierte Werbungen und Inhalte hinzufügen. Werbung und Inhalte können gezeigt und gemessen werden. Einblicke über das Publikum, welche die Werbung gesehen haben und den Inhalt, können abgeleitet werden. So wie Daten können genutzt werden, um es zu verbessern oder die Benutzer Erfahrung zu verbessern das System und die Software.

Wenn du “Ich stimme zu” klickst, erlaubst du uns, die Cookies zu benutzen die Geräte Bezeichnung, den Web oder ähnliche Technologien zu benutzen. Deine Settings, können in deinem Gerät bei deinem Browser geändert werden.

Für den bestimmten Zweck, berechtigten Interessen beruhen darauf, mehr als auf den Inhalt. Du kannst mehr darüber in unseren Privaten und Cookie Politik lesen.